Location: Gwatt
(46.7204°N, 7.6223°E)
Time: 01:41:33
(UTC+00:00)

Transit 2A - Pass Details

Date: 23 January 2021
Orbit: 601 x 958 km, 66.7° (Epoch: 07 March)

Event Time Altitude Azimuth Distance (km) Brightness Sun altitude
Rises 11:43:32 0° 328° (NNW) 3,047 8.6 24.0°
Reaches altitude 10° 11:45:58 10° 332° (NNW) 2,080 7.8 23.9°
Maximum altitude 11:50:34 59° 53° (NE) 726 6.0 23.9°
Drops below altitude 10° 11:54:52 10° 133° (SE) 1,953 8.8 23.9°
Sets 11:57:05 0° 137° (SE) 2,841 9.6 23.9°
